Location: Newark
(54.2500°N, 9.1833°E)
Time: 04:47:15
(UTC+00:00)

Tiros 1 despin weight - Visible Passes

Search period start: 15 December 2019 00:00
Search period end: 25 December 2019 00:00
Orbit: 594 x 642 km, 48.2° (Epoch: 14 December)

Date Brightness Start Highest point End Pass type
(mag) Time Alt. Az. Time Alt. Az. Time Alt. Az.
15 Dec ? 04:36:50 35° S 04:37:15 35° S 04:41:21 10° ESE visible
15 Dec ? 06:14:08 10° WSW 06:18:15 35° S 06:22:19 10° SE visible
16 Dec ? 03:15:42 14° ESE 03:15:42 14° ESE 03:16:26 10° ESE visible
16 Dec ? 04:52:46 35° SSW 04:53:36 38° S 04:57:46 10° ESE visible
16 Dec ? 06:30:39 10° WSW 06:34:34 30° SSW 06:38:26 10° SE visible
17 Dec ? 03:31:36 18° ESE 03:31:36 18° ESE 03:33:00 10° ESE visible
17 Dec ? 05:08:39 30° SW 05:09:58 38° S 05:14:07 10° ESE visible
17 Dec ? 06:47:17 10° WSW 06:50:50 23° SSW 06:54:19 10° SSE visible
18 Dec ? 03:47:28 23° ESE 03:47:28 23° ESE 03:49:29 10° ESE visible
18 Dec ? 05:24:32 24° SW 05:26:19 33° SSW 05:30:20 10° SE visible
19 Dec ? 04:03:20 28° SE 04:03:20 28° SE 04:05:52 10° ESE visible
19 Dec ? 05:40:24 18° WSW 05:42:36 27° SSW 05:46:22 10° SE visible
20 Dec ? 04:19:13 31° SSE 04:19:13 31° SSE 04:22:10 10° ESE visible
20 Dec ? 05:56:17 13° WSW 05:58:50 20° SSW 06:02:06 10° SSE visible
21 Dec ? 04:35:07 29° S 04:35:07 29° S 04:38:20 10° SE visible
21 Dec ? 06:12:42 10° WSW 06:14:57 14° SW 06:17:12 10° S visible
22 Dec ? 04:51:02 24° SSW 04:51:02 24° SSW 04:54:15 10° SSE visible
23 Dec ? 03:29:56 11° SE 03:29:56 11° SE 03:30:12 10° SE visible
23 Dec ? 05:07:00 17° SSW 05:07:00 17° SSW 05:09:47 10° S visible
24 Dec ? 03:45:56 12° SE 03:45:56 12° SE 03:46:16 10° SE visible
24 Dec ? 05:23:00 11° SW 05:23:00 11° SW 05:24:18 10° SSW visible
